Preview of NWS' New Version of Forecast
This preview is not operational and should not be used for support decisions.
Latest weather observations around

Panama City - Northwest Florida Beaches International Airport (KECP)

Using English Units (Switch to International System of Units)
Date/ Time (CDT) Wind (mph) Vis. (mi) Weather Sky Cond. Temp (°F) Rel. Humidity Wind Chill (°F) Heat Index (°F) Pressure Precip. (in)
Air Dwpt 6 hour Altimeter (inHg) Sea level (inHg) 1 hr 3 hr 6 hr
Max Min
Jun 26 16:53 N 6 10 Mostly Clear FEW045 94 66     40%   97 30.09 30.12      
Jun 26 15:53 N 8 10 Mostly Clear FEW045 96 63     34%   98 30.1 30.13      
Jun 26 14:53 N 8 10 Mostly Clear FEW045 97 67     38%   101 30.1 30.13      
Jun 26 13:53 N 10 10 Partly Cloudy SCT045 95 69     43%   101 30.12 30.15      
Jun 26 12:53 NE 10 10 Partly Cloudy SCT045 94 68     43%   99 30.13 30.16      
Jun 26 11:53 N 8 10 Clear CLR 92 71     51%   99 30.14 30.17      
Jun 26 10:53 N 10 10 Clear CLR 88 72     59%   95 30.16 30.19      
Jun 26 09:53 N 9 10 Clear CLR 85 73     68%   92 30.17 30.2      
Jun 26 08:53 N 7 10 Clear CLR 82 72     72%   87 30.17 30.2      
Jun 26 07:53 NNW 6 10 Clear CLR 78 71     79%   79 30.16 30.19      
Jun 26 06:53 NNW 6 10 Clear CLR 76 70     82%   77 30.14 30.17      
Jun 26 05:53 Calm 10 Clear CLR 72 69     91%   73 30.12 30.15      
Jun 26 04:53 NW 3 10 Clear CLR 72 69     91%   73 30.1 30.13      
Jun 26 03:53 Calm 10 Clear CLR 73 68     84%   74 30.09 30.12      
Jun 26 02:53 N 5 10 Clear CLR 74 68     82%   75 30.09 30.12      
Jun 26 01:53 Calm 10 Clear CLR 74 68     82%   75 30.11 30.14      
Jun 26 00:53 NW 6 10 Clear CLR 74 68     82%   75 30.11 30.14      
Jun 25 23:53 WNW 6 10 Clear CLR 75 67     76%   76 30.11 30.14      
Jun 25 22:53 WNW 3 10 Clear CLR 74 66     76%   75 30.09 30.12      
Jun 25 21:53 WSW 3 10 Clear CLR 75 66     74%   76 30.08 30.11      
Jun 25 20:53 WSW 3 6 Haze CLR 77 64     64%   77 30.06 30.09      
Jun 25 19:53   6 Haze SCT055 BKN075 BKN090 78 64     62%   79 30.1        
Jun 25 18:53 W 10 5 Haze CLR 87 70     57%   92 30.03 30.06      
Jun 25 17:53 SW 9 10 Haze CLR 91 72     54%   99 30.02 30.05      
Jun 25 16:53 SW 6 5 Haze CLR 92 75     58%   103 30.02 30.05      
Jun 25 15:53 NW 3 10 Clear CLR 91 73     56%   100 30.03 30.06      
Jun 25 14:53 W 7 10 Mostly Clear FEW034 91 75     60%   102 30.04 30.07      
Jun 25 14:33 SW 7 10 Mostly Clear FEW034 92 75     58%   103 30.04        
Jun 25 14:27 SSW 10 10 Clear CLR 92 77     62%   106 30.04        
Jun 25 13:53 SSW 11 10 Partly Cloudy SCT039 94 75     54%   106 30.04 30.07      
Jun 25 12:53 W 13 10 Partly Cloudy SCT041 93 74     54%   103 30.05 30.08      
Jun 25 11:53 SW 8 10 Partly Cloudy SCT038 91 75     60%   102 30.06 30.09      
Jun 25 10:53 WSW 9 10 Partly Cloudy SCT031 90 75     62%   101 30.07 30.1      
Jun 25 09:53 WSW 8 10 Partly Cloudy SCT026 SCT033 88 76     68%   99 30.06 30.09      
Jun 25 08:53 W 7 10 Partly Cloudy FEW019 SCT025 87 77     72%   99 30.07 30.1      
Jun 25 07:53 WSW 8 7 Clear CLR 85 79     82%   98 30.06 30.09      
Jun 25 06:53 WSW 5 8 Clear CLR 82 78     88%   91 30.05 30.08      
Jun 25 05:53 Calm 7 Clear CLR 80 77     90%   86 30.04 30.07      
Jun 25 04:53 SW 5 9 Clear   80 77     90%   86 30.01 30.04      
Jun 25 03:53 Calm 7 Mostly Clear FEW017 79 76     90%   83 30.01 30.04      
Jun 25 02:53 SW 3 8 Clear CLR 80 76     87%   85 30 30.03      
Jun 25 01:53 Calm 8 Clear CLR 79 76     90%   83 30 30.03      
Jun 25 00:53 SSW 5 10 Clear CLR 80 77     90%   86 29.99 30.02      
Jun 24 23:53 S 6 10 Clear CLR 81 77     88%   88 30 30.03      
Jun 24 22:53 S 6 10 Clear CLR 81 76     85%   87 30.01 30.03      
Jun 24 21:53 SW 5 10 Haze CLR 82 75     79%   89 30 30.03      
Jun 24 20:53 S 7 10 Haze CLR 83 78     85%   93 29.99 30.02      
Jun 24 19:53 SSW 7 10 Clear   84 78     82%   95 29.97 30      
Jun 24 18:53 SSW 9 10 Haze CLR 85 77     77%   95 29.97 30     0
Jun 24 17:53 SW 13 5 Haze CLR 87 76     70%   98 29.95 29.98      
Jun 24 17:05 SW 11 5 Clear   87 70     57%   92 29.97        
Jun 24 17:00 SW 11 10 Clear   87 70     57%   92 29.97        
Jun 24 16:53 SW 11 10 Clear   87 70     57%   92 29.97 30      
Jun 24 16:07 SW 11 10 Mostly Cloudy BKN023 BKN030 87 77     72%   99 29.98        
Jun 24 16:00 SW 10 10 Partly Cloudy FEW023 SCT029 SCT039 87 77     72%   99 29.98        
Jun 24 15:53   10 Mostly Cloudy BKN023 BKN030 87 77     72%   99 29.98 30.01   0  
Jun 24 14:53   8 Mostly Cloudy BKN023 BKN030 90 77     66%   103 29.98 30.01 0    
Jun 24 13:53 SW 15 8 Mostly Cloudy BKN023 BKN030 89 77     68%   102 30 30.03      
Jun 24 12:53 SSW 10 8 Mostly Cloudy BKN027 BKN044 86 79     80%   100 30.02 30.05 0   0
Jun 24 11:53 SSW 13 8 Mostly Cloudy BKN027 BKN037 89 76     65%   100 30.02 30.05      
Jun 24 10:53 SW 14 8 Mostly Cloudy BKN022 BKN037 88 76     68%   99 30.02 30.05      
Jun 24 09:53 SW 16 10 Mostly Cloudy BKN022 BKN033 87 75     68%   97 30.01 30.04      
Jun 24 08:53 SSW 14 10 Partly Cloudy SCT021 87 76     70%   98 30.01 30.03      
Jun 24 07:53   10 Mostly Clear FEW014 85 76     75%   94 29.99 30.02      
Jun 24 06:53 S 8 10 Clear CLR 83 77     82%   92 29.97 30      
Jun 24 05:53 S 8 10 Mostly Clear FEW015 81 75     82%   87 29.97 30      
Jun 24 04:53 S 8 10 Mostly Clear FEW020 81 75     82%   87 29.96 29.99      
Jun 24 03:53 S 9 10 Clear CLR 81 75     82%   87 29.96 29.99      
Jun 24 02:53 S 6 10 Clear CLR 81 76     85%   87 29.97 30      
Jun 24 01:53 S 6 10 Clear CLR 81 76     85%   87 29.98 30.01      
Jun 24 00:53 S 6 10 Clear CLR 81 76     85%   87 29.99 30.02     0
Jun 23 23:53 S 5 10 Clear CLR 81 76     85%   87 30 30.03      
Jun 23 22:53 SSE 3 10 Clear CLR 80 75     85%   85 30 30.03      
Jun 23 21:53 S 5 10 Clear CLR 81 75     82%   87 30.01 30.04 0 0  
Jun 23 20:53 S 5 10 Light Rain CLR 81 75     82%   87 30.01 30.04 0    
Jun 23 19:53 S 7 10 Mostly Clear FEW009 83 74     74%   89 30.01 30.04      
Jun 23 18:53 SW 13 10 Clear CLR 86 73     65%   93 30 30.03      
Jun 23 17:53 SSW 10 10 Clear CLR 88 73     61%   96 30.01 30.03      
Jun 23 16:53 SW 10 10 Clear CLR 89 73     59%   97 30.02 30.05      
Jun 23 15:53 S 10 10 Clear CLR 90 72     56%   97 30.03 30.06      
Jun 23 14:53 S 13 10 Clear CLR 90 72     56%   97 30.05 30.08      
May 15 13:40 NNE 13 10 Mostly Cloudy BKN030 BKN060 81 67     62%   83 29.89   0    
May 15 04:29 N 6 10 Cloudy SCT012 OVC090 71 67     87%   72 29.89        
May 12 17:53 SW 10 10 Clear CLR 86 58     39%   85 30.02 30.06 0    
May 12 02:53 Calm 10 Clear   61 57     87%     30.06 30.09      
May 12 00:53 Calm 9 Clear CLR 63 58     84%     30.09 30.11     0
May 11 21:53 Calm 10 Clear CLR 70 58     66%     30.09 30.12   0  
May 11 15:53 SSW 11 10 Clear CLR 91 49     24%   88 30.04 30.07      
May 11 11:53 6 10 Clear CLR 90 50     26%   87 30.12 30.15      
Jun 11 10:53 ENE 5 10 Mostly Cloudy FEW005 BKN095 78 74     87%   80 30.12 30.15 0    
Jun 11 07:53 ENE 5 10 Cloudy OVC003 74 72     94%   75 30.1 30.13      
Jun 11 02:30 Calm 10 Mostly Clear FEW002 72 70     93%   73 30.04        
Jun 10 11:53 Calm 10 Mostly Clear FEW037 86 69     57%   90 30.03 30.06      
Jun 10 01:53 Calm 10 Clear CLR 69 66     90%     29.96 29.99      
Jun 09 21:53 Calm 10 Cloudy OVC085 75 71     88%   76 29.97 30      
Jun 09 06:53 Calm 10 Mostly Clear FEW050 71 67     87%   72 29.92 29.95      
Jun 08 08:09 NNW 8 10 Mostly Cloudy BKN010 70 65     84%     29.85        
Jun 08 06:53 NW 5 10 Clear CLR 67 65     93%     29.83 29.86      
Jun 07 11:53 N 3 10 Mostly Cloudy SCT012 BKN020 81 73     77%   86 29.69 29.72      
Jun 07 08:53 N 3 9 Light Rain FEW003 OVC080 74 72     94%   75 29.7 29.72 0    
Jun 06 07:55 NNE 5 10 Mostly Cloudy BKN085 72 70     93%   73 29.74        
Jun 06 05:41 NNE 7 10 Light Rain BKN023 BKN030 OVC036 73 71     94%   74 29.75   0    
Jun 06 03:28 SE 8 3 Thunderstorms and Heavy Rain and Fog/Mist SCT008 BKN032 OVC055 74 73     97%   76 29.76   0    
Jun 06 00:07 Calm 10 Cloudy FEW009 BKN017 OVC050 75 73     94%   77 29.79